Location: Newark
(41.8083°N, 72.2500°W)
Time: 12:56:46
(UTC+00:00)

Altair - Pass Details

Date: 04 December 2021
Orbit: 1501 x 1683 km, 47.2° (Epoch: 27 January)

Event Time Altitude Azimuth Distance (km) Brightness Sun altitude
Rises 01:49:29 0° 295° (WNW) 4,670 10.7 -49.6°
Reaches altitude 10° 01:52:32 10° 295° (WNW) 3,673 10.0 -50.2°
Enters shadow 01:56:41 31° 293° (WNW) 2,395 8.7 -50.9°
